Weather History for Eveleth, MN

Change the Weather History Date:

Sunday, April 7, 2013

  Actual Average Record
Temperature  
Mean Temperature 34 °F -  
Max Temperature 37 °F 44 °F 80 °F (1991)
Min Temperature 32 °F 24 °F 5 °F (1997)
Degree Days  
Heating Degree Days 30    
Moisture  
Dew Point 29 °F    
Average Humidity 82    
Maximum Humidity 96    
Minimum Humidity 69    
Precipitation  
Precipitation 0.03 in - - ()
Sea Level Pressure  
Sea Level Pressure 29.83 in    
Wind  
Wind Speed 4 mph (West)    
Max Wind Speed 9 mph    
Max Gust Speed -    
Visibility 9 miles    
Events Rain , Snow    
Averages and records for this station are not official NWS values.
T = Trace of Precipitation, MM = Missing Value Source: NWS Daily Summary

Daily Weather History Graph

Daily Weather History Graph

Search for Another Location

Airport:

Trip Planner

Search our weather history database for the weather conditions in past years. The results will help you decide how hot, cold, wet, or windy it might be!

Date:

Astronomy

Apr. 07, 2013 Rise Set
Actual Time 6:36 AM CDT 7:48 PM CDT
Civil Twilight 6:04 AM CDT 8:20 PM CDT
Nautical Twilight 5:26 AM CDT 8:58 PM CDT
Astronomical Twilight 4:46 AM CDT 9:38 PM CDT
Moon 5:04 AM CDT (4/7) 5:12 PM CDT (4/7)
Length of Visible Light 14h 15m
Length of Day
13h 12m
Waning Crescent, 8% of the Moon is Illuminated
Apr 7
Waning Crescent
Apr 10
New
Apr 18
First Quarter
Apr 25
Full
May 2
Last Quarter

Hourly Weather History & Observations

Time (CDT) Temp. Windchill Dew Point Humidity Pressure Visibility Wind Dir Wind Speed Gust Speed Precip Events Conditions
12:09 AM 32.9 °F 26.7 °F 30.2 °F 90% 29.70 in 10.0 mi North 6.9 mph - N/A   Overcast
12:30 AM 32.2 °F 27.7 °F 30.0 °F 92% 29.71 in 5.0 mi NW 4.6 mph - N/A   Overcast
12:50 AM 32.2 °F 28.9 °F 29.3 °F 89% 29.71 in 10.0 mi North 3.5 mph - N/A   Overcast
1:09 AM 32.2 °F 27.7 °F 29.1 °F 88% 29.72 in 10.0 mi North 4.6 mph - N/A   Overcast
1:29 AM 32.2 °F 27.7 °F 28.6 °F 87% 29.73 in 10.0 mi NNW 4.6 mph - N/A   Overcast
1:50 AM 32.2 °F 28.9 °F 28.8 °F 87% 29.73 in 10.0 mi NW 3.5 mph - N/A   Overcast
2:09 AM 32.2 °F 26.7 °F 29.1 °F 88% 29.74 in 10.0 mi NNW 5.8 mph - N/A   Overcast
2:30 AM 32.2 °F 25.8 °F 29.1 °F 88% 29.74 in 10.0 mi NNW 6.9 mph - N/A   Overcast
2:50 AM 32.2 °F 26.7 °F 29.1 °F 88% 29.74 in 10.0 mi NNW 5.8 mph - N/A   Overcast
3:09 AM 32.2 °F 27.7 °F 29.1 °F 88% 29.74 in 10.0 mi NNW 4.6 mph - N/A   Overcast
3:29 AM 32.2 °F 26.7 °F 28.9 °F 88% 29.74 in 10.0 mi NNW 5.8 mph - N/A   Overcast
3:50 AM 32.2 °F 27.7 °F 28.8 °F 87% 29.74 in 10.0 mi NNW 4.6 mph - N/A   Overcast
4:09 AM 32.2 °F 27.7 °F 28.9 °F 88% 29.75 in 10.0 mi NNW 4.6 mph - N/A   Overcast
4:29 AM 32.2 °F 27.7 °F 29.3 °F 89% 29.75 in 10.0 mi NNW 4.6 mph - N/A   Overcast
4:50 AM 32.2 °F 28.9 °F 29.1 °F 88% 29.76 in 10.0 mi NW 3.5 mph - N/A   Overcast
5:09 AM 32.2 °F 27.7 °F 28.4 °F 86% 29.77 in 10.0 mi NNW 4.6 mph - N/A   Overcast
5:29 AM 32.2 °F 26.7 °F 28.4 °F 86% 29.78 in 10.0 mi NNW 5.8 mph - N/A   Overcast
5:50 AM 32.2 °F 28.9 °F 28.8 °F 87% 29.79 in 10.0 mi NNW 3.5 mph - N/A   Overcast
6:09 AM 32.2 °F - 28.9 °F 88% 29.80 in 10.0 mi Calm Calm - N/A   Overcast
6:29 AM 32.2 °F 27.7 °F 28.9 °F 88% 29.81 in 10.0 mi NNW 4.6 mph - N/A   Overcast
6:49 AM 32.2 °F 28.9 °F 29.1 °F 88% 29.82 in 10.0 mi NNW 3.5 mph - N/A   Overcast
7:09 AM 32.2 °F - 28.9 °F 88% 29.82 in 10.0 mi Calm Calm - N/A   Overcast
7:30 AM 32.2 °F - 28.9 °F 88% 29.83 in 10.0 mi Calm Calm - N/A   Overcast
7:49 AM 32.2 °F - 28.4 °F 86% 29.84 in 10.0 mi Calm Calm - N/A   Overcast
8:09 AM 32.2 °F 27.7 °F 27.9 °F 84% 29.84 in 10.0 mi NNE 4.6 mph - N/A   Overcast
8:30 AM 32.2 °F 27.7 °F 27.1 °F 82% 29.84 in 10.0 mi NNE 4.6 mph - N/A   Overcast
8:49 AM 33.3 °F 30.2 °F 27.0 °F 78% 29.85 in 10.0 mi NE 3.5 mph - N/A   Overcast
9:09 AM 33.8 °F - 26.6 °F 75% 29.86 in 10.0 mi Calm Calm - N/A   Mostly Cloudy
9:30 AM 34.7 °F - 27.5 °F 75% 29.86 in 10.0 mi Calm Calm - N/A   Mostly Cloudy
9:49 AM 34.9 °F - 27.5 °F 74% 29.86 in 10.0 mi Calm Calm - N/A   Overcast
10:09 AM 34.9 °F 29.9 °F 27.7 °F 75% 29.86 in 10.0 mi NNW 5.8 mph - N/A   Overcast
10:30 AM 34.9 °F 32.0 °F 27.5 °F 74% 29.87 in 10.0 mi WNW 3.5 mph - N/A   Mostly Cloudy
10:49 AM 37.4 °F - 28.9 °F 71% 29.87 in 10.0 mi Calm Calm - N/A   Mostly Cloudy
11:09 AM 37.4 °F - 28.2 °F 69% 29.87 in 10.0 mi Calm Calm - N/A   Overcast
11:29 AM 37.4 °F - 28.4 °F 70% 29.88 in 10.0 mi Calm Calm - N/A   Overcast
11:49 AM 37.4 °F 34.9 °F 28.8 °F 71% 29.88 in 10.0 mi WSW 3.5 mph - N/A   Overcast
12:10 PM 37.4 °F - 28.9 °F 71% 29.88 in 10.0 mi Calm Calm - N/A   Overcast
12:29 PM 37.4 °F - 28.8 °F 71% 29.88 in 10.0 mi Calm Calm - N/A   Overcast
12:50 PM 37.4 °F 33.8 °F 28.4 °F 70% 29.88 in 10.0 mi SSE 4.6 mph - N/A   Overcast
1:09 PM 37.4 °F 32.1 °F 28.6 °F 70% 29.88 in 10.0 mi South 6.9 mph - N/A   Overcast
1:30 PM 37.4 °F 32.8 °F 28.2 °F 69% 29.88 in 10.0 mi South 5.8 mph - N/A   Overcast
1:50 PM 37.4 °F 32.8 °F 29.1 °F 72% 29.88 in 10.0 mi South 5.8 mph - N/A   Overcast
2:09 PM 37.4 °F 32.1 °F 28.4 °F 70% 29.88 in 10.0 mi South 6.9 mph - N/A   Overcast
2:30 PM 37.4 °F 31.4 °F 28.8 °F 71% 29.88 in 10.0 mi SSW 8.1 mph - N/A   Overcast
2:50 PM 37.4 °F 31.4 °F 29.3 °F 73% 29.87 in 10.0 mi South 8.1 mph - N/A   Overcast
3:09 PM 37.4 °F 33.8 °F 28.9 °F 71% 29.86 in 10.0 mi SSE 4.6 mph - N/A   Overcast
3:30 PM 37.4 °F 30.8 °F 29.8 °F 74% 29.85 in 10.0 mi SSE 9.2 mph - N/A   Overcast
3:49 PM 37.4 °F 32.1 °F 29.8 °F 74% 29.86 in 10.0 mi South 6.9 mph - N/A   Overcast
4:09 PM 37.4 °F 32.1 °F 30.2 °F 75% 29.85 in 10.0 mi South 6.9 mph - N/A   Overcast
4:30 PM 37.4 °F 32.1 °F 30.9 °F 77% 29.85 in 10.0 mi South 6.9 mph - N/A   Overcast
4:49 PM 37.4 °F 30.8 °F 30.9 °F 77% 29.85 in 10.0 mi South 9.2 mph - N/A   Overcast
5:09 PM 37.4 °F 32.8 °F 30.9 °F 77% 29.85 in 10.0 mi South 5.8 mph - N/A   Overcast
5:30 PM 37.4 °F 32.8 °F 31.1 °F 78% 29.85 in 10.0 mi SSW 5.8 mph - N/A   Overcast
5:49 PM 37.4 °F 32.1 °F 31.1 °F 78% 29.84 in 10.0 mi South 6.9 mph - N/A   Overcast
6:09 PM 37.4 °F 31.4 °F 31.3 °F 79% 29.84 in 10.0 mi SSW 8.1 mph - N/A   Overcast
6:30 PM 35.4 °F 29.7 °F 29.5 °F 79% 29.84 in 10.0 mi South 6.9 mph - N/A   Overcast
6:49 PM 34.9 °F 29.0 °F 29.1 °F 79% 29.84 in 10.0 mi South 6.9 mph - N/A   Overcast
7:09 PM 34.9 °F 28.3 °F 29.3 °F 80% 29.84 in 10.0 mi South 8.1 mph - N/A   Overcast
7:30 PM 34.9 °F 28.3 °F 30.0 °F 82% 29.85 in 10.0 mi South 8.1 mph - N/A   Overcast
7:49 PM 34.9 °F 30.8 °F 30.0 °F 82% 29.86 in 10.0 mi South 4.6 mph - N/A   Overcast
8:09 PM 34.7 °F 30.6 °F 30.2 °F 84% 29.86 in 10.0 mi SSE 4.6 mph - N/A   Overcast
8:29 PM 34.5 °F - 30.0 °F 84% 29.86 in 10.0 mi Calm Calm - N/A   Overcast
8:49 PM 33.8 °F - 29.3 °F 84% 29.88 in 10.0 mi Calm Calm - N/A   Overcast
9:10 PM 33.8 °F - 29.3 °F 84% 29.88 in 10.0 mi Calm Calm - N/A   Overcast
9:29 PM 33.8 °F - 29.3 °F 84% 29.87 in 10.0 mi Calm Calm - N/A Rain Light Rain
9:50 PM 32.7 °F - 29.8 °F 89% 29.87 in 2.5 mi Calm Calm - N/A Snow Light Snow
10:10 PM 32.2 °F - 29.8 °F 91% 29.87 in 7.0 mi Calm Calm - N/A Snow Light Snow
10:29 PM 32.2 °F - 30.0 °F 92% 29.86 in 7.0 mi Calm Calm - N/A Snow Light Snow
10:49 PM 32.2 °F - 30.2 °F 92% 29.86 in 3.0 mi Calm Calm - N/A Snow Light Snow
11:10 PM 32.2 °F - 30.7 °F 94% 29.85 in 1.8 mi Calm Calm - N/A Snow Light Snow
11:29 PM 32.2 °F - 31.1 °F 96% 29.85 in 1.5 mi Calm Calm - 0.01 in Snow Light Snow
11:49 PM 32.2 °F - 31.1 °F 96% 29.84 in 1.2 mi Calm Calm - 0.03 in Snow Light Snow